Location: Althorst
(53.6379°N, 10.7715°E)
Time: 14:23:10
(UTC+00:00)

USA 215 - Pass Details

Date: 10 December 2019
Orbit: 1099 x 1109 km, 123.0° (Epoch: 03 January)

Event Time Altitude Azimuth Distance (km) Brightness Sun altitude
Exits shadow 15:30:36 - 64° (ENE) 3,387 5.1 -4.9°
Reaches altitude 10° 15:31:47 10° 67° (ENE) 2,966 4.9 -5.0°
Maximum altitude 15:37:59 43° 138° (SE) 1,500 4.0 -5.8°
Drops below altitude 10° 15:44:09 10° 209° (SSW) 2,960 6.6 -6.6°
Sets 15:46:47 0° 216° (SW) 3,917 7.5 -6.9°
